Regional Weather Roundup
Issued by NWS Jackson, KY

Home | Current Version | Previous Version | Text Only | Print | Product List | Glossary On
Versions: 1 2 3 4 5 6 7 8 9 10 11 12 13 14 15 16 17 18 19 20 21 22 23 24 25 26 27 28 29 30 31 32 33 34 35 36 37 38 39 40 41 42 43 44 45 46 47 48 49 50
819
ASUS43 KJKL 240610
RWRJKL

EAST KENTUCKY HOURLY WEATHER ROUNDUP
NATIONAL WEATHER SERVICE JACKSON KY
200 AM EDT WED AUG 24 2016

NOTE: "FAIR" INDICATES FEW OR NO CLOUDS BELOW 12,000 FEET WITH
NO SIGNIFICANT WEATHER AND/OR OBSTRUCTIONS TO VISIBILITY.

* THESE REPORTS ARE NOT UNDER NWS QUALITY CONTROL AND MAY NOT
  REPORT WEATHER SUCH AS PRECIPITATION AND FOG.

KYZ079-080-083-085-087-088-110-112-115-119-120-240700
...EASTERN KENTUCKY...

CITY           SKY/WX    TMP DP  RH WIND       PRES   REMARKS
JACKSON        MOCLDY    70  61  73 SE5       30.24F
6HR MIN TEMP:  68; 6HR MAX TEMP:  77;

LONDON         CLEAR     66  63  90 CALM      30.24F
6HR MIN TEMP:  66; 6HR MAX TEMP:  76;

SOMERSET*      CLOUDY    64  64 100 CALM      30.24F
MONTICELLO*    CLEAR    N/A N/A N/A W10       30.24F
WILLIAMSBURG*  CLEAR     66  66 100 CALM      30.25S
MIDDLESBORO*   CLEAR     63  63  99 CALM      30.27S
6HR MIN TEMP:  63; 6HR MAX TEMP:  74;

HARLAN APT*      N/A     64  63  94 CALM      30.28S
PIKE CO APT*     N/A     67  67  99 S3        30.26S
BIG SANDY APT* PTCLDY    65  65  99 CALM      30.25F
6HR MIN TEMP:  65; 6HR MAX TEMP:  76;

MOREHEAD APT*  PTCLDY    66  61  82 S5        30.25S
ASHLAND*       MOCLDY    63  61  94 CALM      30.21S VSB 1
$$

KYZ035-036-041-042-044-050-067-078-099-240700
...CENTRAL KENTUCKY...

CITY           SKY/WX    TMP DP  RH WIND       PRES   REMARKS
MT STERLING*   MOCLDY    64  63  94 CALM      30.24S
FLEMING/MASON* PTCLDY    64  62  94 SE5       30.23S
DANVILLE*      CLOUDY    64  63  94 CALM      30.24S
LEXINGTON      CLOUDY    69  62  78 SE5       30.22F
6HR MIN TEMP:  68; 6HR MAX TEMP:  75;

FRANKFORT      PTCLDY    68  63  84 CALM      30.20F
6HR MIN TEMP:  68; 6HR MAX TEMP:  76;

LOUISVILLE     PTCLDY    73  65  75 SE5       30.19R
6HR MIN TEMP:  73; 6HR MAX TEMP:  80;

LEBANON*         N/A     70  66  88 SE6       30.22S
GLASGOW*       CLEAR     67  67 100 CALM      30.21R
BOWLING GREEN  PTCLDY    72  68  87 CALM      30.19S
6HR MIN TEMP:  72; 6HR MAX TEMP:  80;

$$

KYZ091>093-OHZ055-061-077-WVZ005-015-034-035-042-240700
...SOUTHERN OHIO/WEST VIRGINIA...

CITY           SKY/WX    TMP DP  RH WIND       PRES   REMARKS
COVINGTON      CLOUDY    66  63  90 S5        30.20F
COLUMBUS       MOCLDY    64  60  87 CALM      30.21S
DAYTON         MOCLDY    68  59  73 SE8       30.21F
WILMINGTON     PTCLDY    64  60  87 SE3       30.22S
HUNTINGTON     CLEAR     65  63  93 E3        30.22F
CHARLESTON     PTCLDY    65  63  93 CALM      30.24F
PINEVILLE*     CLEAR     62  59  90 MISG      30.34S FOG
BECKLEY        CLEAR     66  59  78 SE7       30.33S
BLUEFIELD      CLEAR     67  58  72 S9        30.35F
LOGAN CO APT*    N/A     66  64  94 CALM      30.26F
$$

VAZ002-007-008-TNZ017-027-036-066-071-240700
...SOUTHWEST VIRGINIA/EAST TENNESSEE...

CITY           SKY/WX    TMP DP  RH WIND       PRES   REMARKS
WISE*          CLEAR     68  54  60 S7        30.34F
JONESVILLE*    MOCLDY    66  64  94 CALM      30.29S
ABINGDON*      CLEAR     68  64  87 CALM      30.32S
BRISTOL        PTCLDY    64  62  93 CALM      30.28F
MORRISTOWN*    CLOUDY    72  66  83 CALM      30.25S
SEVIERVILLE*   CLEAR     68  66  94 CALM      30.23F
KNOXVILLE      PTCLDY    72  66  81 CALM      30.22
OAK RIDGE      CLEAR     69  65  86 CALM      30.25F
CROSSVILLE     CLEAR     66  65  96 CALM      30.28F
NASHVILLE      PTCLDY    72  69  90 S5        30.20S
$$

...KEY TO REMARKS...
VSB - VISIBILITY IN MILES
WCI - WIND CHILL INDEX
HX  - HEAT INDEX

$$




USA.gov is the U.S. government's official web portal to all federal, state and local government web resources and services.